EDT,Max TemperatureF,Mean TemperatureF,Min TemperatureF,Max Dew PointF,MeanDew PointF,Min DewpointF,Max Humidity, Mean Humidity, Min Humidity, Max Sea Level PressureIn, Mean Sea Level PressureIn, Min Sea Level PressureIn, Max VisibilityMiles, Mean VisibilityMiles, Min VisibilityMiles, Max Wind SpeedMPH, Mean Wind SpeedMPH, Max Gust SpeedMPH,PrecipitationIn, CloudCover, Events, WindDirDegrees
2012-5-1,73,63,53,59,53,41,94,78,53,30.21,30.04,29.98,10,8,2,16,8,23,0.47,6,Thunderstorm,209
2012-5-2,53,50,48,48,47,45,94,86,76,30.19,30.15,30.09,10,9,3,15,9,20,0.27,8,,85
2012-5-3,57,54,50,54,50,46,94,89,82,30.21,30.13,30.08,10,7,0,12,4,,0.09,8,Thunderstorm,130
2012-5-4,78,66,53,63,57,52,94,83,57,30.11,29.98,29.86,10,6,0,12,4,,0.00,5,Thunderstorm,178
2012-5-5,62,58,53,57,53,50,100,91,82,30.06,29.97,29.85,10,6,0,10,7,,0.00,8,Thunderstorm,76
2012-5-6,59,54,48,50,48,45,93,80,63,30.13,30.10,30.04,10,10,9,12,6,,0.00,5,,89
2012-5-7,62,54,46,52,45,39,93,72,48,30.16,30.13,30.11,10,10,1,15,4,21,0.00,5,,167
2012-5-8,69,62,55,55,51,45,77,66,53,30.11,29.96,29.85,10,10,10,21,10,29,0.00,6,,174
2012-5-9,66,64,60,63,61,55,94,90,73,29.85,29.72,29.57,10,7,2,13,7,23,0.63,8,,210
2012-5-10,66,58,48,57,45,34,94,62,34,29.87,29.64,29.53,10,10,5,22,10,30,0.17,4,,290
2012-5-11,69,56,44,39,35,30,76,46,23,30.14,29.99,29.87,10,10,10,18,8,31,0.00,1,,282
2012-5-12,78,62,46,45,40,36,71,43,24,30.26,30.20,30.14,10,10,10,14,5,20,0.00,0,,270
2012-5-13,82,70,57,55,50,43,67,50,30,30.22,30.17,30.11,10,10,10,15,8,23,0.00,1,,229
2012-5-14,71,66,62,57,55,52,82,69,53,30.19,30.14,30.11,10,10,10,16,7,22,0.00,6,,191
2012-5-15,69,64,60,64,59,55,94,87,77,30.13,30.02,29.95,10,8,2,14,8,20,0.25,7,,162
2012-5-16,78,70,62,64,62,61,94,81,57,29.96,29.91,29.86,10,9,1,8,4,,0.08,4,,210
2012-5-17,71,62,53,61,43,36,88,51,28,30.14,30.07,29.92,10,10,10,17,8,21,0.00,0,,347
2012-5-18,66,57,48,52,42,37,82,57,37,30.24,30.19,30.13,10,10,10,14,5,18,0.00,0,,75
2012-5-19,75,62,48,46,43,39,82,55,33,30.18,30.15,30.14,10,10,10,14,6,20,0.00,0,,35
2012-5-20,71,62,53,55,48,34,88,65,27,30.25,30.21,30.14,10,10,3,18,8,23,0.00,3,,54
2012-5-21,60,58,57,59,57,55,100,91,88,30.21,30.11,29.98,10,3,0,14,9,18,1.37,8,Thunderstorm,66
2012-5-22,71,66,60,63,60,57,100,87,73,29.97,29.88,29.83,10,6,1,10,6,,0.10,8,,35
2012-5-23,75,68,62,64,62,61,94,81,65,30.04,29.95,29.88,10,9,5,12,3,16,0.00,4,,140
2012-5-24,68,65,62,64,63,61,100,93,88,30.19,30.14,30.05,10,5,0,14,7,,0.00,8,,98
2012-5-25,77,70,62,68,64,61,100,87,69,30.20,30.17,30.14,10,6,0,12,6,17,0.00,6,,115
2012-5-26,87,76,64,72,66,63,94,71,48,30.17,30.14,30.09,10,10,10,10,5,17,0.00,0,,226
2012-5-27,80,74,69,66,63,55,83,66,50,30.19,30.12,30.03,10,10,10,12,6,17,0.00,3,,203
2012-5-28,87,78,69,68,66,64,83,65,49,30.02,29.97,29.93,10,10,10,12,7,16,0.00,1,,220
2012-5-29,91,81,71,72,69,63,94,66,46,29.94,29.83,29.73,10,10,10,25,8,34,0.00,1,,228
2012-5-30,75,72,68,66,65,64,88,78,69,29.81,29.77,29.72,10,10,8,8,2,,0.00,3,,236
2012-5-31,80,70,60,64,55,48,94,65,32,29.93,29.81,29.71,10,8,0,15,5,23,0.00,2,,324